EJA157 KMLU-KMEM

Flight info

Callsign EJA157
Flight time 0h 41m
Altitude 33000
Route FAYEE HOBRK4
Aircraft C25C/M-L/C

Departure

Time 2026-04-20 23:32
Airport Monroe Regional Airport (KMLU)

Arrival

Time 2026-04-21 00:14
Airport Memphis International Airport (KMEM)
Time Latitude Longitude Altitude Speed Heading
2026-04-20 23:17 32.51157 -92.04182 82 ft 0 kts 291°
2026-04-20 23:24 32.51152 -92.04173 83 ft 3 kts 326°
2026-04-20 23:24 32.51139 -92.04169 81 ft 0 kts 12°
2026-04-20 23:30 32.51171 -92.04145 80 ft 10 kts 65°
2026-04-20 23:30 32.51176 -92.04058 78 ft 11 kts 91°
2026-04-20 23:31 32.51185 -92.03966 78 ft 11 kts 67°
2026-04-20 23:31 32.51223 -92.03897 81 ft 9 kts 53°
2026-04-20 23:31 32.51261 -92.03837 81 ft 13 kts 54°
2026-04-20 23:31 32.51204 -92.03722 80 ft 29 kts 140°
2026-04-20 23:32 32.50970 -92.03490 81 ft 81 kts 140°
2026-04-20 23:32 32.50329 -92.02857 440 ft 147 kts 140°
2026-04-20 23:32 32.49461 -92.01947 1325 ft 183 kts 136°
2026-04-20 23:32 32.48459 -92.00756 2241 ft 229 kts 135°
2026-04-20 23:33 32.47309 -91.99294 3175 ft 252 kts 125°
2026-04-20 23:33 32.46884 -91.97283 4102 ft 258 kts 86°
2026-04-20 23:33 32.47398 -91.95272 5028 ft 262 kts 62°
2026-04-20 23:33 32.48718 -91.93738 5949 ft 272 kts 33°
2026-04-20 23:34 32.50526 -91.93053 6866 ft 278 kts 11°
2026-04-20 23:34 32.52453 -91.92639 7764 ft 282 kts 11°
2026-04-20 23:34 32.54377 -91.92205 8674 ft 284 kts 11°
2026-04-20 23:34 32.56328 -91.91707 9621 ft 286 kts 11°
2026-04-20 23:35 32.58252 -91.91219 10532 ft 286 kts 11°
2026-04-20 23:35 32.62444 -91.90178 12355 ft 328 kts 11°
2026-04-20 23:35 32.64718 -91.89608 13304 ft 344 kts 10°
2026-04-20 23:36 32.67130 -91.89006 14273 ft 358 kts 10°
2026-04-20 23:36 32.69603 -91.88385 15155 ft 369 kts 10°
2026-04-20 23:36 32.72147 -91.87748 16060 ft 378 kts 10°
2026-04-20 23:36 32.74722 -91.87105 16985 ft 384 kts 10°
2026-04-20 23:37 32.77372 -91.86440 17948 ft 390 kts 11°
2026-04-20 23:37 32.80026 -91.85775 18880 ft 394 kts 10°
2026-04-20 23:37 32.82729 -91.85095 19741 ft 397 kts 10°
2026-04-20 23:37 32.85427 -91.84421 20624 ft 400 kts 10°
2026-04-20 23:38 32.88176 -91.83727 21543 ft 401 kts
2026-04-20 23:38 32.90887 -91.83048 22477 ft 401 kts
2026-04-20 23:38 32.93632 -91.82354 23455 ft 400 kts
2026-04-20 23:38 32.96340 -91.81676 24346 ft 399 kts
2026-04-20 23:39 32.99032 -91.80996 25178 ft 397 kts
2026-04-20 23:39 33.01735 -91.80317 26048 ft 395 kts
2026-04-20 23:39 33.04425 -91.79635 26944 ft 392 kts
2026-04-20 23:39 33.07064 -91.78972 27857 ft 389 kts
2026-04-20 23:40 33.09720 -91.78299 28819 ft 385 kts
2026-04-20 23:40 33.12318 -91.77643 29801 ft 381 kts
2026-04-20 23:40 33.14905 -91.76990 30743 ft 375 kts
2026-04-20 23:40 33.17417 -91.76352 31608 ft 370 kts
2026-04-20 23:41 33.19932 -91.75716 32513 ft 363 kts
2026-04-20 23:41 33.22366 -91.75101 33256 ft 362 kts
2026-04-20 23:41 33.24918 -91.74470 33272 ft 381 kts
2026-04-20 23:41 33.27550 -91.73810 33277 ft 398 kts
2026-04-20 23:42 33.30305 -91.73103 33290 ft 413 kts
2026-04-20 23:42 33.33173 -91.72367 33291 ft 425 kts
2026-04-20 23:42 33.36122 -91.71620 33293 ft 435 kts
2026-04-20 23:43 33.42097 -91.70097 33294 ft 442 kts
2026-04-20 23:43 33.48129 -91.68560 33300 ft 444 kts
2026-04-20 23:44 33.54173 -91.67019 33303 ft 445 kts
2026-04-20 23:44 33.60240 -91.65469 33301 ft 444 kts
2026-04-20 23:45 33.66271 -91.63929 33303 ft 443 kts
2026-04-20 23:45 33.72275 -91.62392 33301 ft 442 kts
2026-04-20 23:46 33.78293 -91.60849 33294 ft 441 kts
2026-04-20 23:46 33.83310 -91.59560 33295 ft 441 kts
2026-04-20 23:47 33.89191 -91.57380 33288 ft 450 kts 17°
2026-04-20 23:47 33.94669 -91.53571 33284 ft 461 kts 31°
2026-04-20 23:48 33.99389 -91.48252 33283 ft 471 kts 44°
2026-04-20 23:48 34.03688 -91.42321 33293 ft 470 kts 44°
2026-04-20 23:49 34.07980 -91.36401 32894 ft 462 kts 44°
2026-04-20 23:49 34.10084 -91.33484 32449 ft 453 kts 44°
2026-04-20 23:49 34.12137 -91.30649 31701 ft 453 kts 44°
2026-04-20 23:49 34.14227 -91.27771 30857 ft 455 kts 44°
2026-04-20 23:50 34.16306 -91.24891 29978 ft 460 kts 44°
2026-04-20 23:50 34.18413 -91.21964 29031 ft 458 kts 44°
2026-04-20 23:50 34.20491 -91.19076 28157 ft 451 kts 44°
2026-04-20 23:50 34.22546 -91.16233 27363 ft 443 kts 44°
2026-04-20 23:51 34.24542 -91.13482 26607 ft 436 kts 44°
2026-04-20 23:51 34.26517 -91.10742 25808 ft 431 kts 45°
2026-04-20 23:51 34.28491 -91.08004 25031 ft 427 kts 45°
2026-04-20 23:51 34.30434 -91.05302 24279 ft 423 kts 45°
2026-04-20 23:52 34.32345 -91.02651 23589 ft 416 kts 46°
2026-04-20 23:52 34.34215 -91.00049 22881 ft 410 kts 45°
2026-04-20 23:52 34.36091 -90.97440 22187 ft 404 kts 46°
2026-04-20 23:52 34.37906 -90.94911 21532 ft 398 kts 45°
2026-04-20 23:53 34.39726 -90.92379 20875 ft 394 kts 46°
2026-04-20 23:53 34.41509 -90.89891 20248 ft 390 kts 46°
2026-04-20 23:53 34.43259 -90.87448 19633 ft 383 kts 46°
2026-04-20 23:53 34.44999 -90.85019 19023 ft 376 kts 46°
2026-04-20 23:54 34.46701 -90.82637 18401 ft 369 kts 46°
2026-04-20 23:54 34.48356 -90.80330 17720 ft 363 kts 46°
2026-04-20 23:54 34.50001 -90.78014 17050 ft 358 kts 47°
2026-04-20 23:54 34.51543 -90.75670 16305 ft 357 kts 47°
2026-04-20 23:55 34.53167 -90.73378 15571 ft 356 kts 46°
2026-04-20 23:55 34.54755 -90.71113 14860 ft 355 kts 47°
2026-04-20 23:55 34.56340 -90.68780 14165 ft 355 kts 47°
2026-04-20 23:55 34.57856 -90.66527 14006 ft 337 kts 47°
2026-04-20 23:56 34.59359 -90.64337 13995 ft 342 kts 47°
2026-04-20 23:56 34.60888 -90.62109 13995 ft 346 kts 47°
2026-04-20 23:56 34.62391 -90.59800 13998 ft 349 kts 51°
2026-04-20 23:56 34.63863 -90.57445 13997 ft 350 kts 48°
2026-04-20 23:57 34.65405 -90.55151 13995 ft 351 kts 48°
2026-04-20 23:57 34.66904 -90.52836 14000 ft 352 kts 49°
2026-04-20 23:57 34.68408 -90.50452 14004 ft 353 kts 49°
2026-04-20 23:57 34.69908 -90.48094 14005 ft 354 kts 49°
2026-04-20 23:58 34.71405 -90.45756 14004 ft 352 kts 49°
2026-04-20 23:58 34.72917 -90.43400 14006 ft 351 kts 49°
2026-04-20 23:58 34.74375 -90.41106 13804 ft 340 kts 49°
2026-04-20 23:58 34.75820 -90.38843 13360 ft 332 kts 49°
2026-04-20 23:59 34.77211 -90.36654 12918 ft 324 kts 49°
2026-04-20 23:59 34.78568 -90.34534 12467 ft 315 kts 49°
2026-04-20 23:59 34.79907 -90.32427 11960 ft 309 kts 49°
2026-04-20 23:59 34.81199 -90.30398 11536 ft 302 kts 50°
2026-04-21 00:00 34.82477 -90.28387 11134 ft 295 kts 50°
2026-04-21 00:00 34.83717 -90.26440 10712 ft 292 kts 50°
2026-04-21 00:00 34.84956 -90.24488 10253 ft 290 kts 50°
2026-04-21 00:00 34.86176 -90.22566 9763 ft 288 kts 51°
2026-04-21 00:01 34.87399 -90.20641 9272 ft 287 kts 51°
2026-04-21 00:01 34.88606 -90.18733 9028 ft 283 kts 51°
2026-04-21 00:01 34.89814 -90.16835 8998 ft 279 kts 51°
2026-04-21 00:01 34.90986 -90.14977 8995 ft 278 kts 51°
2026-04-21 00:02 34.92176 -90.13112 8991 ft 276 kts 50°
2026-04-21 00:02 34.93533 -90.11710 8912 ft 247 kts 25°
2026-04-21 00:02 34.95150 -90.11155 8504 ft 236 kts
2026-04-21 00:02 34.96771 -90.11120 8095 ft 232 kts 359°
2026-04-21 00:03 34.98348 -90.11092 8003 ft 221 kts 358°
2026-04-21 00:03 34.99872 -90.11070 7990 ft 222 kts 358°
2026-04-21 00:03 35.01442 -90.11045 7986 ft 226 kts 359°
2026-04-21 00:03 35.03017 -90.11014 7910 ft 231 kts 358°
2026-04-21 00:04 35.04686 -90.10983 7457 ft 245 kts 359°
2026-04-21 00:04 35.06366 -90.10947 7188 ft 235 kts 359°
2026-04-21 00:04 35.07976 -90.10917 6813 ft 232 kts 358°
2026-04-21 00:04 35.09595 -90.10889 6413 ft 231 kts 358°
2026-04-21 00:05 35.11203 -90.10966 6077 ft 226 kts 356°
2026-04-21 00:05 35.12740 -90.10950 5765 ft 223 kts 359°
2026-04-21 00:05 35.14319 -90.10942 5284 ft 227 kts 358°
2026-04-21 00:05 35.15898 -90.10962 4788 ft 230 kts 357°
2026-04-21 00:06 35.17511 -90.10991 4356 ft 230 kts 357°
2026-04-21 00:06 35.19106 -90.11018 4057 ft 226 kts 358°
2026-04-21 00:06 35.20712 -90.11040 3989 ft 233 kts 358°
2026-04-21 00:06 35.22316 -90.11064 3993 ft 233 kts 358°
2026-04-21 00:07 35.23947 -90.11086 3985 ft 233 kts 358°
2026-04-21 00:07 35.25567 -90.11111 3985 ft 232 kts 358°
2026-04-21 00:07 35.27174 -90.11122 3987 ft 232 kts 358°
2026-04-21 00:07 35.28797 -90.11057 3975 ft 232 kts 11°
2026-04-21 00:08 35.30110 -90.09990 3985 ft 234 kts 55°
2026-04-21 00:08 35.30571 -90.08112 3837 ft 229 kts 94°
2026-04-21 00:08 35.29988 -90.06387 3545 ft 222 kts 135°
2026-04-21 00:08 35.28797 -90.05211 3248 ft 218 kts 146°
2026-04-21 00:09 35.27554 -90.04156 2956 ft 217 kts 148°
2026-04-21 00:09 35.26307 -90.03130 2665 ft 217 kts 148°
2026-04-21 00:09 35.25047 -90.02093 2363 ft 217 kts 148°
2026-04-21 00:09 35.23809 -90.01073 2114 ft 216 kts 148°
2026-04-21 00:10 35.22592 -90.00070 2035 ft 205 kts 148°
2026-04-21 00:10 35.21372 -89.99296 1999 ft 190 kts 168°
2026-04-21 00:10 35.20093 -89.99092 1989 ft 189 kts 179°
2026-04-21 00:10 35.18756 -89.99036 1988 ft 194 kts 181°
2026-04-21 00:11 35.17393 -89.99006 1994 ft 197 kts 180°
2026-04-21 00:11 35.16020 -89.98979 1994 ft 201 kts 180°
2026-04-21 00:11 35.14592 -89.98949 2003 ft 207 kts 181°
2026-04-21 00:11 35.13159 -89.98919 1903 ft 207 kts 180°
2026-04-21 00:12 35.11739 -89.98890 1633 ft 199 kts 180°
2026-04-21 00:12 35.10422 -89.98860 1393 ft 179 kts 181°
2026-04-21 00:12 35.09233 -89.98832 1161 ft 162 kts 181°
2026-04-21 00:12 35.08205 -89.98808 953 ft 139 kts 180°
2026-04-21 00:13 35.07271 -89.98788 768 ft 129 kts 180°
2026-04-21 00:13 35.06411 -89.98778 610 ft 116 kts 180°
2026-04-21 00:13 35.05642 -89.98760 456 ft 108 kts 180°
2026-04-21 00:13 35.04901 -89.98744 332 ft 106 kts 179°
2026-04-21 00:14 35.04316 -89.98735 322 ft 53 kts 179°
2026-04-21 00:14 35.04185 -89.98670 322 ft 7 kts 93°
2026-04-21 00:14 35.04185 -89.98652 323 ft 0 kts 90°
2026-04-21 00:15 35.04185 -89.98651 323 ft 2 kts 90°
2026-04-21 00:15 35.04191 -89.98621 323 ft 10 kts 58°
2026-04-21 00:15 35.04266 -89.98597 323 ft 12 kts 359°
2026-04-21 00:16 35.04357 -89.98597 322 ft 14 kts 359°
2026-04-21 00:16 35.04454 -89.98599 324 ft 14 kts 359°
2026-04-21 00:16 35.04556 -89.98601 324 ft 15 kts 359°
2026-04-21 00:16 35.04661 -89.98604 325 ft 17 kts 359°
2026-04-21 00:17 35.04786 -89.98607 325 ft 19 kts 359°
2026-04-21 00:17 35.04929 -89.98609 325 ft 21 kts
2026-04-21 00:17 35.05065 -89.98544 324 ft 21 kts 27°
2026-04-21 00:17 35.05210 -89.98513 324 ft 22 kts 360°
2026-04-21 00:18 35.05360 -89.98514 324 ft 22 kts 360°
2026-04-21 00:18 35.05512 -89.98510 324 ft 22 kts
2026-04-21 00:18 35.05553 -89.98397 323 ft 19 kts 124°
2026-04-21 00:18 35.05492 -89.98269 324 ft 17 kts 100°
2026-04-21 00:19 35.05435 -89.98235 324 ft 3 kts 272°
2026-04-21 00:19 35.05435 -89.98244 324 ft 0 kts 271°